TimeGMT,TemperatureF,Dew PointF,Humidity,Sea Level PressureIn,VisibilityMPH,Wind Direction,Wind SpeedMPH,Gust SpeedMPH,PrecipitationIn,Events,Conditions,WindDirDegrees,DateUTC
2:50 AM,45,35,59,30.37,28,ESE,18.4,,,,Partly Cloudy,110,2012-12-11 02:50:00
5:50 AM,45,31,47,30.36,31,ESE,19.6,,,,Scattered Clouds,120,2012-12-11 05:50:00
7:50 AM,46.4,33.8,62,30.33,6.2,SE,24.2,-,N/A,,Scattered Clouds,130,2012-12-11 07:50:00
8:20 AM,46.4,32.0,57,30.33,6.2,SE,23.0,-,N/A,,Scattered Clouds,130,2012-12-11 08:20:00
8:50 AM,46,33,48,30.37,28,SE,23.0,,,,Mostly Cloudy,140,2012-12-11 08:50:00
8:50 AM,46.4,33.8,62,30.36,6.2,SE,21.9,-,N/A,,Scattered Clouds,140,2012-12-11 08:50:00
9:20 AM,46.4,32.0,57,30.36,6.2,SE,24.2,-,N/A,,Scattered Clouds,130,2012-12-11 09:20:00
9:50 AM,46.4,32.0,57,30.36,6.2,SE,23.0,-,N/A,,Scattered Clouds,130,2012-12-11 09:50:00
10:20 AM,46.4,33.8,62,30.36,6.2,SE,21.9,-,N/A,,Scattered Clouds,130,2012-12-11 10:20:00
10:50 AM,46.4,32.0,57,30.36,6.2,SE,24.2,-,N/A,,Scattered Clouds,130,2012-12-11 10:50:00
11:20 AM,46.4,33.8,62,30.36,6.2,SE,24.2,-,N/A,,Scattered Clouds,130,2012-12-11 11:20:00
11:50 AM,46,33,48,30.37,28,SE,25.3,,,,,140,2012-12-11 11:50:00
11:50 AM,46.4,33.8,62,30.36,6.2,SE,25.3,-,N/A,,Scattered Clouds,140,2012-12-11 11:50:00
12:20 PM,46.4,33.8,62,30.36,6.2,SE,24.2,-,N/A,,Scattered Clouds,130,2012-12-11 12:20:00
1:50 PM,46.4,33.8,62,30.33,6.2,SE,21.9,-,N/A,,Scattered Clouds,130,2012-12-11 13:50:00
2:20 PM,46.4,33.8,62,30.33,6.2,SE,21.9,-,N/A,,Scattered Clouds,140,2012-12-11 14:20:00
2:50 PM,46,35,54,30.32,25,SE,20.7,,,,Partly Cloudy,130,2012-12-11 14:50:00
2:50 PM,46.4,35.6,66,30.30,6.2,SE,23.0,-,N/A,,Scattered Clouds,140,2012-12-11 14:50:00
3:20 PM,46.4,35.6,66,30.30,6.2,SE,21.9,-,N/A,,Scattered Clouds,130,2012-12-11 15:20:00
3:50 PM,46.4,35.6,66,30.30,6.2,SE,23.0,-,N/A,,Scattered Clouds,130,2012-12-11 15:50:00
4:20 PM,46.4,32.0,57,30.30,6.2,SE,20.7,-,N/A,,Scattered Clouds,130,2012-12-11 16:20:00
4:50 PM,44.6,32.0,61,30.30,6.2,SE,20.7,-,N/A,,Scattered Clouds,130,2012-12-11 16:50:00
5:50 PM,45,33,52,30.30,25,SE,20.7,,,,Mostly Cloudy,140,2012-12-11 17:50:00
8:50 PM,45,37,64,30.25,31,SSE,19.6,,,Rain,Rain,150,2012-12-11 20:50:00
11:50 PM,44,33,54,30.20,25,SSE,24.2,,,,Mostly Cloudy,160,2012-12-11 23:50:00